[TLELIST] Archives

 

[list_settings.list_name] Current TLEs

August 28th 2014 PDT

HST 1 20580U 90037B 14239.57114404 .00001867 00000-0 11436-3 0 877 2 20580 028.4699 287.8084 0002804 331.7213 028.3204 15.05650769135480 ISS (ZARYA) 1 25544U 98067A 14239.91664816 .00023399 00000-0 41609-3 0 9786 2 25544 051.6475 104.0505 0003570 055.4709 068.6766 15.50042569902456 CXO 1 25867U 99040B 14239.36806890 .00000000 00000-0 10000-3 0 590 2 25867 076.9656 317.8826 8007302 273.2688 009.2750 00.37811661 12199 ____________________________________________________________________ These 2-Line ...Continue Reading

[list_settings.list_name] Current TLEs

August 27th 2014 PDT

HST 1 20580U 90037B 14239.30600077 .00001760 00000-0 10716-3 0 854 2 20580 028.4705 289.5539 0002824 332.9160 027.1172 15.05649666135449 ISS (ZARYA) 1 25544U 98067A 14239.45402416 .00010638 00000-0 19417-3 0 9730 2 25544 051.6434 106.3489 0003558 024.7733 036.1542 15.49990886902385 CXO 1 25867U 99040B 14239.36801686 .00000000 00000-0 10000-3 0 587 2 25867 076.9662 317.8810 8007595 273.2679 009.2736 00.37812306 12194 ____________________________________________________________________ These 2-Line ...Continue Reading

[list_settings.list_name] Current TLEs

August 26th 2014 PDT

HST 1 20580U 90037B 14237.39464953 .00001591 00000-0 95748-4 0 831 2 20580 028.4699 302.1084 0002971 312.1815 107.2457 15.05644068135153 ISS (ZARYA) 1 25544U 98067A 14238.30245611 .00010985 00000-0 19838-3 0 9669 2 25544 051.6470 112.0476 0004574 060.0005 049.9424 15.50256005902201 CXO 1 25867U 99040B 14239.30457018 .00000465 00000-0 00000+0 0 565 2 25867 076.9735 317.8969 8010514 273.2204 000.8044 00.37802796 12189 ____________________________________________________________________ These 2-Line ...Continue Reading

[list_settings.list_name] Current TLEs

August 25th 2014 PDT

HST 1 20580U 90037B 14235.68484223 .00001086 00000-0 61591-4 0 820 2 20580 028.4701 313.3514 0002861 292.6608 200.7770 15.05640140134905 ISS (ZARYA) 1 25544U 98067A 14237.26962477 .00011083 00000-0 20024-3 0 9602 2 25544 051.6468 117.1672 0004588 056.2174 045.8119 15.50232852902043 CXO 1 25867U 99040B 14239.30457018 .00000465 00000-0 00000+0 0 565 2 25867 076.9735 317.8969 8010514 273.2204 000.8044 00.37802796 12189 ____________________________________________________________________ These 2-Line ...Continue Reading

[list_settings.list_name] Current TLEs

August 24th 2014 PDT

HST 1 20580U 90037B 14235.68484223 .00001086 00000-0 61591-4 0 820 2 20580 028.4701 313.3514 0002861 292.6608 200.7770 15.05640140134905 ISS (ZARYA) 1 25544U 98067A 14236.44350837 .00010712 00000-0 19395-3 0 9542 2 25544 051.6463 121.2606 0004622 052.9736 115.6140 15.50212626901919 CXO 1 25867U 99040B 14236.65972022 .00000453 00000-0 00000+0 0 553 2 25867 076.9707 318.0122 8010948 273.2611 000.7487 00.37798605 12177 ____________________________________________________________________ These 2-Line ...Continue Reading

[list_settings.list_name] Current TLEs

August 23rd 2014 PDT

HST 1 20580U 90037B 14234.49699074 .00001310 00000-0 76731-4 0 811 2 20580 028.4702 321.1620 0002772 278.9291 243.2922 15.05636333134727 ISS (ZARYA) 1 25544U 98067A 14235.33642657 .00011087 00000-0 20061-3 0 9473 2 25544 051.6461 126.7438 0004594 051.7992 054.3997 15.50189276901743 CXO 1 25867U 99040B 14236.65972022 .00000453 00000-0 00000+0 0 553 2 25867 076.9707 318.0122 8010948 273.2611 000.7487 00.37798605 12177 ____________________________________________________________________ These 2-Line ...Continue Reading

[list_settings.list_name] Current TLEs

August 22nd 2014 PDT

HST 1 20580U 90037B 14232.69922485 .00001271 00000-0 74162-4 0 807 2 20580 028.4705 332.9835 0002722 258.6546 219.9291 15.05631084134458 ISS (ZARYA) 1 25544U 98067A 14234.24777153 .00010791 00000-0 19566-3 0 9415 2 25544 051.6458 132.1367 0004584 045.9220 100.8748 15.50163229901571 CXO 1 25867U 99040B 14236.65972022 .00000453 00000-0 00000+0 0 553 2 25867 076.9707 318.0122 8010948 273.2611 000.7487 00.37798605 12177 ____________________________________________________________________ These 2-Line ...Continue Reading

[list_settings.list_name] Current TLEs

August 21st 2014 PDT

HST 1 20580U 90037B 14232.69922485 .00001271 00000-0 74162-4 0 807 2 20580 028.4705 332.9835 0002722 258.6546 219.9291 15.05631084134458 ISS (ZARYA) 1 25544U 98067A 14233.33774542 .00009685 00000-0 17658-3 0 9356 2 25544 051.6465 136.6451 0004563 045.6959 059.2912 15.50138638901436 CXO 1 25867U 99040B 14234.01560761 .00000432 00000-0 00000+0 0 540 2 25867 076.9654 318.1028 8013003 273.3217 000.7499 00.37797341 12160 ____________________________________________________________________ These 2-Line ...Continue Reading

[list_settings.list_name] Current TLEs

August 20th 2014 PDT

HST 1 20580U 90037B 14231.49941058 .00001070 00000-0 60552-4 0 794 2 20580 028.4707 340.8729 0002677 244.7539 197.6761 15.05628308134265 ISS (ZARYA) 1 25544U 98067A 14232.30434177 .00007723 00000-0 14261-3 0 9278 2 25544 051.6465 141.7676 0004454 043.1487 051.1414 15.50110373901276 CXO 1 25867U 99040B 14234.01560761 .00000432 00000-0 00000+0 0 540 2 25867 076.9654 318.1028 8013003 273.3217 000.7499 00.37797341 12160 ____________________________________________________________________ These 2-Line ...Continue Reading

[list_settings.list_name] Current TLEs

August 19th 2014 PDT

HST 1 20580U 90037B 14229.72020580 .00001199 00000-0 69243-4 0 782 2 20580 028.4708 352.5717 0002691 222.8702 276.7834 15.05622815134007 ISS (ZARYA) 1 25544U 98067A 14231.21313463 .00006737 00000-0 12553-3 0 9211 2 25544 051.6464 147.1745 0004554 038.7848 082.1387 15.50088695901100 CXO 1 25867U 99040B 14231.36872057 .00000352 00000-0 00000+0 0 539 2 25867 076.9548 318.2018 8017042 273.3764 000.3725 00.37799497 12157 ____________________________________________________________________ These 2-Line ...Continue Reading
  • This mailing list is a public mailing list - anyone may join or leave, at any time.
  • This mailing list is announce-only.

International Space Station (ISS) / Hubble Space Telescope (HST) / Chandra X-Ray Observatory Orbital Data via EMAIL

Privacy Policy:

Private list